Location: Melizzano
(41.1500°N, 14.5000°E)
Time: 03:54:35
(UTC+00:00)

Cosmos 1709 Rocket - Pass Details

Date: 29 September 2021
Orbit: 947 x 1002 km, 82.9° (Epoch: 16 October)

Event Time Altitude Azimuth Distance (km) Brightness Sun altitude
Rises 03:04:13 0° 357° (N) 3,627 7.2 -21.7°
Reaches altitude 10° 03:06:47 10° 2° (N) 2,680 6.5 -21.3°
Maximum altitude 03:12:45 53° 79° (E) 1,158 4.7 -20.2°
Drops below altitude 10° 03:18:43 10° 155° (SSE) 2,686 6.4 -19.1°
Sets 03:21:18 0° 160° (SSE) 3,635 7.1 -18.6°
